DW4604 Weather Reports


time (UTC)temp
F
wind
direction
speed
knots
gust
knots
rain 1hr
in
rain 24hr
in
rain mn
in
humidity
%
barometer
mb
20260510090435 63 0 0.0 0.0 0.00 0.00 0.00 59 1015.4
20260510085935 63 0 0.0 0.0 0.00 0.00 0.00 59 1015.5
20260510085434 62 0 0.0 0.0 0.00 0.00 0.00 57 1015.4
20260510084935 62 0 0.0 0.0 0.00 0.00 0.00 56 1015.5
20260510084434 62 0 0.0 0.0 0.00 0.00 0.00 57 1015.6
20260510083935 62 0 0.0 0.0 0.00 0.00 0.00 59 1015.7
20260510083435 62 0 0.0 0.0 0.00 0.00 0.00 61 1015.7
20260510082935 62 0 0.0 0.0 0.00 0.00 0.00 59 1015.8
20260510082437 62 0 0.0 0.0 0.00 0.00 0.00 59 1015.8
20260510081935 62 0 0.0 0.0 0.00 0.00 0.00 60 1015.9
20260510081435 62 0 0.0 0.0 0.00 0.00 0.00 62 1015.9
20260510080436 61 0 0.0 0.0 0.00 0.00 0.00 63 1016.0
20260510075935 61 0 0.0 0.0 0.00 0.00 0.00 61 1016.1
20260510075435 60 0 0.0 0.0 0.00 0.00 0.00 62 1016.1
20260510074934 60 0 0.0 0.0 0.00 0.00 0.00 61 1016.1
20260510074436 60 0 0.0 0.0 0.00 0.00 0.00 63 1016.0
20260510073935 59 0 0.0 0.0 0.00 0.00 0.00 64 1016.2
20260510073434 59 0 0.0 0.0 0.00 0.00 0.00 64 1016.3
20260510072436 58 0 0.0 0.0 0.00 0.00 0.00 65 1016.2
20260510071936 58 0 0.0 0.0 0.00 0.00 0.00 67 1016.2
20260510071435 58 0 0.0 0.0 0.00 0.00 0.00 67 1016.2
20260510070936 57 0 0.0 0.0 0.00 0.00 0.00 68 1016.3
20260510070435 57 0 0.0 0.0 0.00 0.00 0.00 68 1016.3
20260510065935 56 0 0.0 0.0 0.00 0.00 0.00 68 1016.1
20260510064935 56 0 0.0 0.0 0.00 0.00 0.00 71 1016.1
20260510063935 55 0 0.0 0.0 0.00 0.00 0.00 75 1016.1
20260510063435 54 0 0.0 0.0 0.00 0.00 0.00 78 1016.2
20260510062936 53 0 0.0 0.0 0.00 0.00 0.00 79 1016.2
20260510062435 53 0 0.0 0.0 0.00 0.00 0.00 84 1016.1
20260510061436 52 0 0.0 0.0 0.00 0.00 0.00 88 1016.2
20260510060936 51 0 0.0 0.0 0.00 0.00 0.00 91 1016.3
20260510060436 51 0 0.0 0.0 0.00 0.00 0.00 92 1016.3
20260510055935 50 0 0.0 0.0 0.00 0.00 0.00 93 1016.4
20260510055435 49 0 0.0 0.0 0.00 0.00 0.00 94 1016.5
20260510054435 48 0 0.0 0.0 0.00 0.00 0.00 94 1016.6
20260510053936 47 0 0.0 0.0 0.00 0.00 0.00 94 1016.7
20260510053435 47 0 0.0 0.0 0.00 0.00 0.00 94 1016.7
20260510051436 46 0 0.0 0.0 0.00 0.00 0.00 94 1016.8
20260510050936 46 0 0.0 0.0 0.00 0.00 0.00 95 1016.7
20260510050435 45 0 0.0 0.0 0.00 0.00 0.00 95 1016.8
20260510045937 44 0 0.0 0.0 0.00 0.00 0.00 94 1016.7
20260510045437 42 0 0.0 0.0 0.00 0.00 0.00 94 1016.8
20260510044936 41 0 0.0 0.0 0.00 0.00 0.00 94 1016.7
20260510043936 39 0 0.0 0.0 0.00 0.00 0.00 94 1016.9
20260510043436 38 0 0.0 0.0 0.00 0.00 0.00 94 1017.0
20260510042936 38 0 0.0 0.0 0.00 0.00 0.00 94 1017.1
20260510042435 37 0 0.0 0.0 0.00 0.00 0.00 94 1017.0
20260510041936 37 0 0.0 0.0 0.00 0.00 0.00 93 1016.8
20260510041436 37 0 0.0 0.0 0.00 0.00 0.00 93 1016.9
20260510040437 36 0 0.0 0.0 0.00 0.00 0.00 93 1016.8
20260510035435 36 0 0.0 0.0 0.00 0.00 0.00 93 1016.9
20260510034935 35 0 0.0 0.0 0.00 0.00 0.00 93 1016.9
20260510034435 35 0 0.0 0.0 0.00 0.00 0.00 93 1017.0
20260510033935 35 0 0.0 0.0 0.00 0.00 0.00 93 1017.0
20260510032436 35 0 0.0 0.0 0.00 0.00 0.00 93 1016.9
20260510031935 36 0 0.0 0.0 0.00 0.00 0.00 93 1017.0
20260510030935 36 0 0.0 0.0 0.00 0.00 0.00 93 1017.0
20260510030435 36 0 0.0 0.0 0.00 0.00 0.00 93 1017.0
20260510025936 36 0 0.0 0.0 0.00 0.00 0.00 93 1016.9
20260510025436 36 0 0.0 0.0 0.00 0.00 0.00 93 1017.0
20260510024937 36 0 0.0 0.0 0.00 0.00 0.00 93 1016.9
20260510024436 36 0 0.0 0.0 0.00 0.00 0.00 93 1016.9
20260510022936 36 0 0.0 0.0 0.00 0.00 0.00 93 1016.9
20260510022435 36 0 0.0 0.0 0.00 0.00 0.00 93 1016.9
20260510021935 36 0 0.0 0.0 0.00 0.00 0.00 93 1017.1
20260510021436 37 0 0.0 0.0 0.00 0.00 0.00 93 1017.2
20260510020935 37 0 0.0 0.0 0.00 0.00 0.00 93 1017.2
20260510020436 37 0 0.0 0.0 0.00 0.00 0.00 93 1017.2
20260510015936 37 0 0.0 0.0 0.00 0.00 0.00 93 1017.2
20260510014936 37 0 0.0 0.0 0.00 0.00 0.00 93 1017.3
20260510014436 37 0 0.0 0.0 0.00 0.00 0.00 93 1017.3
20260510013936 37 0 0.0 0.0 0.00 0.00 0.00 93 1017.4
20260510013436 37 0 0.0 0.0 0.00 0.00 0.00 93 1017.3
20260510012936 38 0 0.0 0.0 0.00 0.00 0.00 93 1017.3
20260510011436 37 0 0.0 0.0 0.00 0.00 0.00 93 1017.3
20260510010937 38 0 0.0 0.0 0.00 0.00 0.00 93 1017.3
20260510010438 37 0 0.0 0.0 0.00 0.00 0.00 93 1017.3
20260510005936 38 0 0.0 0.0 0.00 0.00 0.00 93 1017.4
20260510005437 38 0 0.0 0.0 0.00 0.00 0.00 93 1017.4
20260510004937 38 0 0.0 0.0 0.00 0.00 0.00 92 1017.4
20260510003936 38 0 0.0 0.0 0.00 0.00 0.00 92 1017.5
20260510003436 38 0 0.0 0.0 0.00 0.00 0.00 93 1017.5
20260510002936 38 0 0.0 0.0 0.00 0.00 0.00 93 1017.5
20260510001936 38 0 0.0 0.0 0.00 0.00 0.00 92 1017.7
20260510000936 39 0 0.0 0.0 0.00 0.00 0.00 92 1017.6
20260510000436 39 0 0.0 0.0 0.00 0.00 0.00 92 1017.7
20260509235936 39 0 0.0 0.0 0.00 0.00 0.00 93 1017.7
20260509235437 39 0 0.0 0.0 0.00 0.00 0.00 92 1017.7
20260509234936 39 0 0.0 0.0 0.00 0.00 0.00 92 1017.7
20260509233936 39 0 0.0 0.0 0.00 0.00 0.00 92 1017.8
20260509232937 39 0 0.0 0.0 0.00 0.00 0.00 92 1017.8
20260509232438 39 0 0.0 0.0 0.00 0.00 0.00 92 1017.8
20260509231437 40 0 0.0 0.0 0.00 0.00 0.00 92 1017.9
20260509230937 40 0 0.0 0.0 0.00 0.00 0.00 92 1018.0
20260509230438 40 0 0.0 0.0 0.00 0.00 0.00 92 1018.0
20260509225937 40 0 0.0 0.0 0.00 0.00 0.00 92 1018.1
20260509225437 40 0 0.0 0.0 0.00 0.00 0.00 92 1018.1
20260509224938 40 0 0.0 0.0 0.00 0.00 0.00 92 1018.0
20260509224437 40 0 0.0 0.0 0.00 0.00 0.00 92 1018.1
20260509223936 40 0 0.0 0.0 0.00 0.00 0.00 92 1018.1
20260509223436 41 0 0.0 0.0 0.00 0.00 0.00 92 1018.2
20260509222936 41 0 0.0 0.0 0.00 0.00 0.00 92 1018.3
20260509222437 41 0 0.0 0.0 0.00 0.00 0.00 92 1018.3
20260509221937 41 0 0.0 0.0 0.00 0.00 0.00 92 1018.4
20260509221436 41 0 0.0 0.0 0.00 0.00 0.00 92 1018.4
20260509220936 41 0 0.0 0.0 0.00 0.00 0.00 92 1018.4
20260509220437 41 0 0.0 0.0 0.00 0.00 0.00 92 1018.4
20260509215938 41 0 0.0 0.0 0.00 0.00 0.00 92 1018.4
20260509215436 41 0 0.0 0.0 0.00 0.00 0.00 92 1018.4
20260509214937 41 0 0.0 0.0 0.00 0.00 0.00 92 1018.4
20260509214436 41 0 0.0 0.0 0.00 0.00 0.00 91 1018.4
20260509213937 41 0 0.0 0.0 0.00 0.00 0.00 91 1018.4
20260509213437 42 0 0.0 0.0 0.00 0.00 0.00 91 1018.5
20260509212937 42 0 0.0 0.0 0.00 0.00 0.00 91 1018.4
20260509212437 42 0 0.0 0.0 0.00 0.00 0.00 91 1018.5
20260509211937 42 0 0.0 0.0 0.00 0.00 0.00 91 1018.5
20260509211438 42 0 0.0 0.0 0.00 0.00 0.00 91 1018.5
20260509210937 43 0 0.0 0.0 0.00 0.00 0.00 91 1018.5
20260509210437 43 0 0.0 0.0 0.00 0.00 0.00 91 1018.5
20260509205937 43 0 0.0 0.0 0.00 0.00 0.00 91 1018.6
20260509205436 44 0 0.0 0.0 0.00 0.00 0.00 91 1018.6
20260509204937 44 0 0.0 0.0 0.00 0.00 0.00 90 1018.6
20260509204437 44 0 0.0 0.0 0.00 0.00 0.00 90 1018.6
20260509203937 44 0 0.0 0.0 0.00 0.00 0.00 90 1018.7
20260509203437 44 0 0.0 0.0 0.00 0.00 0.00 90 1018.7
20260509202937 45 0 0.0 0.0 0.00 0.00 0.00 90 1018.7
20260509202438 45 0 0.0 0.0 0.00 0.00 0.00 90 1018.7
20260509201938 45 0 0.0 0.0 0.00 0.00 0.00 90 1018.7
20260509201438 45 0 0.0 0.0 0.00 0.00 0.00 90 1018.7
20260509200937 45 0 0.0 0.0 0.00 0.00 0.00 89 1018.7
20260509200438 45 0 0.0 0.0 0.00 0.00 0.00 89 1018.7
20260509195938 46 0 0.0 0.0 0.00 0.00 0.00 88 1018.6
20260509195437 46 0 0.0 0.0 0.00 0.00 0.00 88 1018.6
20260509194937 46 0 0.0 0.0 0.00 0.00 0.00 88 1018.7
20260509194438 47 0 0.0 0.0 0.00 0.00 0.00 87 1018.6
20260509193437 48 0 0.0 0.0 0.00 0.00 0.00 86 1018.7
20260509192937 48 0 0.0 0.0 0.00 0.00 0.00 86 1018.7
20260509192439 49 0 0.0 0.0 0.00 0.00 0.00 86 1018.8
20260509191937 49 0 0.0 0.0 0.00 0.00 0.00 85 1018.8
20260509190938 50 0 0.0 0.0 0.00 0.00 0.00 84 1018.8
20260509190437 51 0 0.0 0.0 0.00 0.00 0.00 83 1018.8
20260509184939 51 0 0.0 0.0 0.00 0.00 0.00 84 1018.7
20260509183938 51 0 0.0 0.0 0.00 0.00 0.00 83 1018.6
20260509183438 51 0 0.0 0.0 0.00 0.00 0.00 83 1018.7
20260509182938 52 0 0.0 0.0 0.00 0.00 0.00 82 1018.6
20260509181938 52 0 0.0 0.0 0.00 0.00 0.00 82 1018.5
20260509181438 52 0 0.0 0.0 0.00 0.00 0.00 81 1018.5
20260509180938 52 0 0.0 0.0 0.00 0.00 0.00 81 1018.5
20260509180438 52 0 0.0 0.0 0.00 0.00 0.00 80 1018.5
20260509175938 52 0 0.0 0.0 0.00 0.00 0.00 80 1018.5
20260509175437 53 0 0.0 0.0 0.00 0.00 0.00 80 1018.6
20260509174438 53 0 0.0 0.0 0.00 0.00 0.00 80 1018.6
20260509173438 53 0 0.0 0.0 0.00 0.00 0.00 79 1018.5
20260509172938 53 0 0.0 0.0 0.00 0.00 0.00 78 1018.5
20260509172438 53 0 0.0 0.0 0.00 0.00 0.00 77 1018.5
20260509171938 53 0 0.0 0.0 0.00 0.00 0.00 77 1018.5
20260509171438 53 0 0.0 0.0 0.00 0.00 0.00 76 1018.5
20260509170939 53 0 0.0 0.0 0.00 0.00 0.00 76 1018.4
20260509165938 54 0 0.0 0.0 0.00 0.00 0.00 76 1018.3
20260509165438 54 0 0.0 0.0 0.00 0.00 0.00 76 1018.4
20260509164938 54 0 0.0 0.0 0.00 0.00 0.00 75 1018.4
20260509164438 54 0 0.0 0.0 0.00 0.00 0.00 74 1018.4
20260509163939 54 0 0.0 0.0 0.00 0.00 0.00 74 1018.4
20260509163439 54 0 0.0 0.0 0.00 0.00 0.00 75 1018.4
20260509162938 54 0 0.0 0.0 0.00 0.00 0.00 74 1018.4
20260509162439 54 0 0.0 0.0 0.00 0.00 0.00 74 1018.4
20260509161938 54 0 0.0 0.0 0.00 0.00 0.00 74 1018.4
20260509161439 54 0 0.0 0.0 0.00 0.00 0.00 74 1018.4
20260509160938 54 0 0.0 0.0 0.00 0.00 0.00 74 1018.5
20260509160438 54 0 0.0 0.0 0.00 0.00 0.00 74 1018.5
20260509155437 54 0 0.0 0.0 0.00 0.00 0.00 73 1018.5
20260509154937 54 0 0.0 0.0 0.00 0.00 0.00 74 1018.6
20260509154437 54 0 0.0 0.0 0.00 0.00 0.00 75 1018.6
20260509153938 54 0 0.0 0.0 0.00 0.00 0.00 75 1018.5
20260509152939 54 0 0.0 0.0 0.00 0.00 0.00 74 1018.5
20260509152439 54 0 0.0 0.0 0.00 0.00 0.00 74 1018.4
20260509151938 55 0 0.0 0.0 0.00 0.00 0.00 74 1018.5
20260509151438 55 0 0.0 0.0 0.00 0.00 0.00 73 1018.5
20260509150937 55 0 0.0 0.0 0.00 0.00 0.00 73 1018.6
20260509150439 55 0 0.0 0.0 0.00 0.00 0.00 73 1018.5
20260509145939 55 0 0.0 0.0 0.00 0.00 0.00 72 1018.6
20260509145438 55 0 0.0 0.0 0.00 0.00 0.00 72 1018.6
20260509144939 55 0 0.0 0.0 0.00 0.00 0.00 71 1018.7
20260509144438 55 0 0.0 0.0 0.00 0.00 0.00 71 1018.6
20260509143938 55 0 0.0 0.0 0.00 0.00 0.00 73 1018.6
20260509143438 55 0 0.0 0.0 0.00 0.00 0.00 72 1018.6
20260509142439 55 0 0.0 0.0 0.00 0.00 0.00 73 1018.5
20260509141938 55 0 0.0 0.0 0.00 0.00 0.00 73 1018.5
20260509141438 55 0 0.0 0.0 0.00 0.00 0.00 71 1018.5
20260509140939 56 0 0.0 0.0 0.00 0.00 0.00 70 1018.6
20260509140439 56 0 0.0 0.0 0.00 0.00 0.00 68 1018.5
20260509135939 56 0 0.0 0.0 0.00 0.00 0.00 70 1018.4
20260509135439 56 0 0.0 0.0 0.00 0.00 0.00 69 1018.5
20260509134439 56 0 0.0 0.0 0.00 0.00 0.00 69 1018.5
20260509133939 56 0 0.0 0.0 0.00 0.00 0.00 70 1018.5
20260509133438 55 0 0.0 0.0 0.00 0.00 0.00 69 1018.6
20260509132942 55 0 0.0 0.0 0.00 0.00 0.00 68 1018.6
20260509132439 55 0 0.0 0.0 0.00 0.00 0.00 68 1018.6
20260509131438 55 0 0.0 0.0 0.00 0.00 0.00 68 1018.6
20260509130938 56 0 0.0 0.0 0.00 0.00 0.00 68 1018.6
20260509130439 56 0 0.0 0.0 0.00 0.00 0.00 69 1018.6
20260509125940 56 0 0.0 0.0 0.00 0.00 0.00 70 1018.5
20260509125439 56 0 0.0 0.0 0.00 0.00 0.00 69 1018.6
20260509124940 56 0 0.0 0.0 0.00 0.00 0.00 68 1018.6
20260509124440 56 0 0.0 0.0 0.00 0.00 0.00 68 1018.6
20260509123940 56 0 0.0 0.0 0.00 0.00 0.00 66 1018.6
20260509123439 56 0 0.0 0.0 0.00 0.00 0.00 68 1018.6
20260509121939 56 0 0.0 0.0 0.00 0.00 0.00 68 1018.6
20260509120938 56 0 0.0 0.0 0.00 0.00 0.00 65 1018.7
20260509120439 56 0 0.0 0.0 0.00 0.00 0.00 69 1018.7
20260509115939 56 0 0.0 0.0 0.00 0.00 0.00 67 1018.8
20260509115439 56 0 0.0 0.0 0.00 0.00 0.00 68 1018.8
20260509114440 56 0 0.0 0.0 0.00 0.00 0.00 68 1018.8
20260509113939 56 0 0.0 0.0 0.00 0.00 0.00 66 1018.8
20260509112439 56 0 0.0 0.0 0.00 0.00 0.00 66 1018.8
20260509111939 56 0 0.0 0.0 0.00 0.00 0.00 68 1018.8
20260509111438 56 0 0.0 0.0 0.00 0.00 0.00 67 1018.8
20260509110939 56 0 0.0 0.0 0.00 0.00 0.00 68 1018.8
20260509110439 56 0 0.0 0.0 0.00 0.00 0.00 68 1018.8
20260509105439 56 0 0.0 0.0 0.00 0.00 0.00 69 1018.9
20260509104939 56 0 0.0 0.0 0.00 0.00 0.00 66 1018.9
20260509104439 56 0 0.0 0.0 0.00 0.00 0.00 66 1018.9
20260509103940 57 0 0.0 0.0 0.00 0.00 0.00 67 1018.9
20260509103439 57 0 0.0 0.0 0.00 0.00 0.00 68 1019.0
20260509102939 57 0 0.0 0.0 0.00 0.00 0.00 67 1018.9
20260509102439 57 0 0.0 0.0 0.00 0.00 0.00 66 1018.9
20260509101439 56 0 0.0 0.0 0.00 0.00 0.00 69 1019.0
20260509100939 56 0 0.0 0.0 0.00 0.00 0.00 68 1019.0
20260509100439 56 0 0.0 0.0 0.00 0.00 0.00 66 1019.0
20260509095940 56 0 0.0 0.0 0.00 0.00 0.00 67 1019.0
20260509095440 56 0 0.0 0.0 0.00 0.00 0.00 66 1019.0
20260509094439 56 0 0.0 0.0 0.00 0.00 0.00 69 1019.0
20260509093939 56 0 0.0 0.0 0.00 0.00 0.00 68 1019.0
20260509093439 56 0 0.0 0.0 0.00 0.00 0.00 68 1019.0
20260509092939 56 0 0.0 0.0 0.00 0.00 0.00 70 1018.9
20260509092440 56 0 0.0 0.0 0.00 0.00 0.00 70 1019.0
20260509091940 56 0 0.0 0.0 0.00 0.00 0.00 70 1019.0
20260509091441 56 0 0.0 0.0 0.00 0.00 0.00 69 1019.0